TimeCST,TemperatureF,Dew PointF,Humidity,Sea Level PressureIn,VisibilityMPH,Wind Direction,Wind SpeedMPH,Gust SpeedMPH,PrecipitationIn,Events,Conditions,WindDirDegrees,DateUTC
12:15 AM,53.6,51.8,94,30.11,0.2,Calm,Calm,-,N/A,Fog,Fog,0,2013-01-01 06:15:00
12:35 AM,53.6,51.8,94,30.11,0.2,East,3.5,-,N/A,Fog,Fog,100,2013-01-01 06:35:00
12:55 AM,55.4,53.6,94,30.10,1.5,SE,4.6,-,N/A,,Mostly Cloudy,140,2013-01-01 06:55:00
1:15 AM,57.2,55.4,94,30.10,7.0,SSE,5.8,-,N/A,,Clear,150,2013-01-01 07:15:00
1:35 AM,60.8,59.0,94,30.09,10.0,SSE,6.9,-,N/A,,Clear,150,2013-01-01 07:35:00
2:15 AM,62.6,59.0,88,30.09,10.0,SSE,5.8,-,N/A,,Clear,160,2013-01-01 08:15:00
2:35 AM,62.6,59.0,88,30.07,10.0,SSE,6.9,-,N/A,,Clear,160,2013-01-01 08:35:00
2:55 AM,62.6,59.0,88,30.07,10.0,SSE,6.9,-,N/A,,Clear,160,2013-01-01 08:55:00
3:15 AM,62.6,59.0,88,30.06,10.0,SSE,10.4,-,N/A,,Clear,160,2013-01-01 09:15:00
3:35 AM,62.6,59.0,88,30.06,10.0,South,9.2,-,N/A,,Clear,170,2013-01-01 09:35:00
3:55 AM,62.6,59.0,88,30.06,10.0,South,11.5,-,N/A,,Clear,170,2013-01-01 09:55:00
4:15 AM,62.6,59.0,88,30.05,10.0,South,6.9,-,N/A,,Clear,170,2013-01-01 10:15:00
4:35 AM,62.6,59.0,88,30.05,10.0,South,6.9,-,N/A,,Clear,170,2013-01-01 10:35:00
5:15 AM,62.6,59.0,88,30.04,10.0,SSE,8.1,-,N/A,,Clear,160,2013-01-01 11:15:00
5:35 AM,62.6,59.0,88,30.04,10.0,SSE,6.9,-,N/A,,Clear,160,2013-01-01 11:35:00
6:15 AM,62.6,59.0,88,30.04,10.0,South,6.9,-,N/A,,Clear,170,2013-01-01 12:15:00
6:35 AM,62.6,59.0,88,30.05,10.0,SSE,4.6,-,N/A,,Clear,160,2013-01-01 12:35:00
7:15 AM,62.6,59.0,88,30.05,7.0,South,5.8,-,N/A,,Clear,170,2013-01-01 13:15:00
7:35 AM,64.4,60.8,88,30.05,7.0,South,8.1,-,N/A,,Clear,170,2013-01-01 13:35:00
7:55 AM,64.4,60.8,88,30.05,7.0,South,9.2,-,N/A,,Clear,170,2013-01-01 13:55:00
8:15 AM,64.4,60.8,88,30.06,7.0,South,10.4,-,N/A,,Clear,170,2013-01-01 14:15:00
8:35 AM,66.2,60.8,83,30.05,7.0,South,8.1,-,N/A,,Clear,170,2013-01-01 14:35:00
8:55 AM,68.0,60.8,78,30.06,7.0,South,9.2,-,N/A,,Scattered Clouds,180,2013-01-01 14:55:00
9:15 AM,69.8,60.8,73,30.06,7.0,South,9.2,-,N/A,,Scattered Clouds,170,2013-01-01 15:15:00
9:35 AM,69.8,60.8,73,30.07,10.0,South,9.2,-,N/A,,Mostly Cloudy,180,2013-01-01 15:35:00
9:55 AM,68.0,60.8,78,30.07,10.0,South,8.1,-,N/A,,Overcast,170,2013-01-01 15:55:00
10:15 AM,69.8,60.8,73,30.06,7.0,SSE,8.1,-,N/A,,Mostly Cloudy,160,2013-01-01 16:15:00
10:35 AM,69.8,60.8,73,30.06,7.0,South,9.2,16.1,N/A,,Mostly Cloudy,170,2013-01-01 16:35:00
10:55 AM,69.8,60.8,73,30.05,10.0,South,9.2,-,N/A,,Overcast,170,2013-01-01 16:55:00
11:15 AM,69.8,60.8,73,30.05,7.0,South,8.1,-,N/A,,Overcast,170,2013-01-01 17:15:00
11:35 AM,69.8,60.8,73,30.04,7.0,South,5.8,-,N/A,,Overcast,170,2013-01-01 17:35:00
11:55 AM,69.8,62.6,78,30.02,7.0,South,6.9,-,N/A,,Overcast,170,2013-01-01 17:55:00
12:15 PM,69.8,62.6,78,30.01,7.0,South,8.1,-,N/A,,Mostly Cloudy,170,2013-01-01 18:15:00
12:35 PM,69.8,62.6,78,30.00,7.0,South,8.1,-,N/A,,Overcast,170,2013-01-01 18:35:00
1:15 PM,68.0,62.6,83,29.98,5.0,South,10.4,16.1,N/A,Rain,Light Rain,190,2013-01-01 19:15:00
1:35 PM,68.0,62.6,83,29.97,5.0,South,9.2,-,N/A,Rain,Light Rain,180,2013-01-01 19:35:00
2:15 PM,71.6,62.6,73,29.97,7.0,South,13.8,19.6,N/A,,Scattered Clouds,190,2013-01-01 20:15:00
2:35 PM,71.6,62.6,73,29.97,7.0,South,10.4,-,N/A,,Scattered Clouds,190,2013-01-01 20:35:00
2:55 PM,71.6,62.6,73,29.97,7.0,South,9.2,16.1,N/A,,Scattered Clouds,180,2013-01-01 20:55:00
3:15 PM,71.6,62.6,73,29.97,7.0,South,8.1,-,N/A,,Mostly Cloudy,170,2013-01-01 21:15:00
3:35 PM,69.8,62.6,78,29.97,7.0,South,8.1,-,N/A,,Overcast,170,2013-01-01 21:35:00
3:55 PM,69.8,62.6,78,29.97,7.0,South,5.8,-,N/A,,Mostly Cloudy,170,2013-01-01 21:55:00
4:15 PM,69.8,62.6,78,29.97,7.0,South,6.9,-,N/A,,Overcast,170,2013-01-01 22:15:00
4:35 PM,68.0,62.6,83,29.97,5.0,South,8.1,-,N/A,,Haze,170,2013-01-01 22:35:00
4:55 PM,68.0,62.6,83,29.97,5.0,South,8.1,-,N/A,,Overcast,170,2013-01-01 22:55:00
5:15 PM,66.2,62.6,88,29.97,7.0,South,5.8,-,N/A,,Overcast,170,2013-01-01 23:15:00
5:35 PM,66.2,62.6,88,29.97,5.0,South,6.9,-,N/A,,Overcast,170,2013-01-01 23:35:00
5:55 PM,66.2,62.6,88,29.97,5.0,South,6.9,-,N/A,,Overcast,170,2013-01-01 23:55:00
6:15 PM,66.2,62.6,88,29.97,5.0,South,3.5,-,N/A,,Overcast,170,2013-01-02 00:15:00
6:35 PM,66.2,62.6,88,29.97,5.0,South,6.9,-,N/A,,Overcast,170,2013-01-02 00:35:00
6:55 PM,66.2,62.6,88,29.98,5.0,South,8.1,-,N/A,,Mostly Cloudy,170,2013-01-02 00:55:00
7:15 PM,68.0,64.4,88,29.98,5.0,South,8.1,-,N/A,,Overcast,170,2013-01-02 01:15:00
7:35 PM,68.0,64.4,88,29.98,7.0,South,5.8,-,N/A,,Overcast,180,2013-01-02 01:35:00
7:55 PM,68.0,64.4,88,29.98,7.0,South,5.8,-,N/A,,Overcast,170,2013-01-02 01:55:00
8:15 PM,68.0,64.4,88,29.98,7.0,South,6.9,-,N/A,,Overcast,170,2013-01-02 02:15:00
8:35 PM,68.0,64.4,88,29.98,7.0,South,9.2,-,N/A,,Overcast,190,2013-01-02 02:35:00
8:55 PM,68.0,64.4,88,29.99,5.0,SSW,8.1,-,N/A,,Overcast,200,2013-01-02 02:55:00
9:15 PM,68.0,64.4,88,29.98,5.0,SSW,10.4,-,N/A,,Overcast,200,2013-01-02 03:15:00
9:35 PM,68.0,64.4,88,29.98,5.0,SSW,6.9,-,N/A,,Overcast,200,2013-01-02 03:35:00
9:55 PM,64.4,62.6,94,30.00,5.0,WSW,10.4,-,N/A,Rain,Light Rain,250,2013-01-02 03:55:00
10:15 PM,62.6,60.8,94,29.99,4.0,West,6.9,-,N/A,Rain,Rain,260,2013-01-02 04:15:00
10:35 PM,62.6,60.8,94,30.00,4.0,West,10.4,-,N/A,,Overcast,260,2013-01-02 04:35:00
10:55 PM,62.6,59.0,88,30.00,3.0,West,8.1,-,N/A,,Overcast,260,2013-01-02 04:55:00
11:15 PM,60.8,59.0,94,30.00,3.0,West,5.8,-,N/A,,Overcast,280,2013-01-02 05:15:00
11:35 PM,60.8,59.0,94,30.01,7.0,NNW,8.1,16.1,N/A,,Overcast,330,2013-01-02 05:35:00
11:55 PM,59.0,55.4,88,30.01,10.0,North,11.5,17.3,N/A,,Overcast,350,2013-01-02 05:55:00